OneWeb SL0413

operational
NORAD ID: 50490 Int'l Des: 2021-132 Owner: ONEWEBN Country: UK Constellation: oneweb
LEOCIRCULARPOLARONEWEB_TYPE

OneWeb SL0413について

説明を読み込み中...

リアルタイム位置

3D地球を読み込み中...

次回通過

高度履歴

Altitude vs Time

uPlot chart will show altitude changes over time

軌道要素

1 50490U 21132X 26061.04766153 .00000051 00000-0 96719-4 0 9996
2 50490 87.9239 356.7391 0001607 86.6804 273.4512 13.18686285207470
Epoch: Mar 2, 2026 • Age: 35 hours

現在のステータス

高度 1193.9 km
速度 7.26 km/s
衛星直下点 -5.95°S, 147.48°W
打ち上げ日 Dec 27, 2021
運用期間 4.1 years
タイプ internet

技術仕様

分類 Payload
質量 148.00 kg
乾燥質量 140.00 kg
総質量 148.00 kg
長さ 1.30 m
直径 1.00 m
スパン 5.00 m
形状 Trapezoid+2 pan
製造者 ONEWUS
バスタイプ ARROW
フェーズステータス In Orbit
所有者/国 ONEWEBN/UK

大規模コンステレーション

Loading constellations...